TimeMDT,TemperatureF,Dew PointF,Humidity,Sea Level PressureIn,VisibilityMPH,Wind Direction,Wind SpeedMPH,Gust SpeedMPH,PrecipitationIn,Events,Conditions,WindDirDegrees,DateUTC
12:53 AM,52.0,36.0,54,29.96,10.0,ESE,8.1,-,N/A,,Clear,110,2013-09-30 06:53:00
1:53 AM,53.1,34.0,48,29.95,10.0,ESE,15.0,-,N/A,,Clear,120,2013-09-30 07:53:00
2:53 AM,53.1,34.0,48,29.94,10.0,East,15.0,-,N/A,,Clear,100,2013-09-30 08:53:00
3:53 AM,51.1,34.0,52,29.93,10.0,ESE,13.8,-,N/A,,Clear,110,2013-09-30 09:53:00
4:53 AM,51.1,34.0,52,29.92,10.0,ESE,16.1,-,N/A,,Clear,110,2013-09-30 10:53:00
5:53 AM,48.9,35.1,59,29.93,10.0,SE,12.7,-,N/A,,Clear,140,2013-09-30 11:53:00
6:53 AM,48.9,35.1,59,29.94,10.0,ESE,10.4,-,N/A,,Clear,120,2013-09-30 12:53:00
7:53 AM,48.9,35.1,59,29.97,10.0,ESE,11.5,-,N/A,,Clear,110,2013-09-30 13:53:00
8:53 AM,54.0,35.1,49,29.97,10.0,ESE,8.1,-,N/A,,Clear,120,2013-09-30 14:53:00
9:53 AM,59.0,32.0,36,29.97,10.0,SE,11.5,-,N/A,,Clear,130,2013-09-30 15:53:00
10:53 AM,63.0,32.0,31,29.96,10.0,South,6.9,-,N/A,,Clear,180,2013-09-30 16:53:00
11:53 AM,66.0,33.1,29,29.93,10.0,SSW,4.6,-,N/A,,Clear,210,2013-09-30 17:53:00
12:53 PM,69.1,32.0,25,29.89,10.0,Calm,Calm,-,N/A,,Clear,0,2013-09-30 18:53:00
1:53 PM,72.0,30.9,22,29.84,10.0,Variable,6.9,-,N/A,,Clear,0,2013-09-30 19:53:00
2:53 PM,73.9,28.9,19,29.81,10.0,NW,9.2,-,N/A,,Clear,310,2013-09-30 20:53:00
3:53 PM,73.9,30.0,20,29.81,10.0,NNW,5.8,-,N/A,,Clear,330,2013-09-30 21:53:00
4:53 PM,75.0,30.0,19,29.80,10.0,NNW,6.9,-,N/A,,Clear,340,2013-09-30 22:53:00
5:53 PM,75.0,28.9,18,29.80,10.0,Calm,Calm,-,N/A,,Clear,0,2013-09-30 23:53:00
6:53 PM,68.0,36.0,31,29.81,10.0,NE,3.5,-,N/A,,Clear,50,2013-10-01 00:53:00
7:53 PM,60.1,37.9,44,29.83,10.0,ENE,3.5,-,N/A,,Clear,70,2013-10-01 01:53:00
8:53 PM,59.0,36.0,42,29.84,10.0,East,4.6,-,N/A,,Clear,90,2013-10-01 02:53:00
9:53 PM,57.0,37.0,47,29.85,10.0,East,6.9,-,N/A,,Clear,80,2013-10-01 03:53:00
10:53 PM,55.0,37.9,53,29.85,10.0,ESE,3.5,-,N/A,,Clear,110,2013-10-01 04:53:00
11:53 PM,55.9,36.0,47,29.85,10.0,East,3.5,-,N/A,,Clear,80,2013-10-01 05:53:00